Home > Weather > Itabuna > Past weeks

Flag for Brazil Weather for the Past 2 Weeks in Itabuna, Bahia, Brazil

Now
82 °F

Passing clouds.


Feels Like: 87 °F
Forecast: N/A
Wind: 15 mph from East

Location: Salvador Aeroporto

Current Time: Feb 12, 2016 at 6:51:59 PM

Latest Report: Feb 12, 2016 at 6:00 PM


Visibility: N/A

Pressure: 29.86 "Hg

Humidity: 70%

Dew point: 72 °F

Location of ItabunaLocation

Historic Weather in Itabuna — Graph

°F

Itabuna Temperature Yesterday

Maximum temperature yesterday: 91 °F (at 10:00 AM)
Minimum temperature yesterday: 77 °F (at 5:00 AM)
Average temperature yesterday: 84 °F

High & Low Weather Summary for the Past Weeks

 TemperatureHumidityPressure
High91 °F (Feb 11, 10:00 AM)89% (Feb 2, 9:00 AM)30.07 "Hg (Feb 2, 9:00 AM)
Low75 °F (Feb 2, 5:00 AM)49% (Feb 8, 11:00 AM)29.83 "Hg (Feb 11, 5:00 PM)
Average83 °F69%29.97 "Hg
* Reported Jan 28 5:00 PM — Feb 12 5:00 PM, Itabuna, Weather by CustomWeather, © 2016

Note: Actual official high and low records may vary slightly from our data, if they occured in-between our weather recording intervals... More about our weather records

Advertising

Itabuna Weather History for the Previous 24 Hours

 ConditionsComfort  
Time TempWeatherWind HumidityBarometerVisibility
5:00 PM
Fri, Feb 12
86 °FPassing clouds.16 mph62%29.83 "HgN/A
4:00 PM88 °FPassing clouds.14 mph59%29.83 "HgN/A
3:00 PM88 °FPassing clouds.15 mph62%29.86 "HgN/A
2:00 PM88 °FPassing clouds.16 mph59%29.86 "HgN/A
1:00 PM88 °FPassing clouds.17 mph59%29.86 "HgN/A
12:00 PM90 °FPassing clouds.13 mph55%29.89 "HgN/A
11:00 AM88 °FPassing clouds.16 mph59%29.92 "HgN/A
10:00 AM88 °FScattered clouds.16 mph59%29.92 "HgN/A
9:00 AM86 °FScattered clouds.5 mph66%29.92 "HgN/A
8:00 AM84 °FScattered clouds.3 mph70%29.92 "HgN/A
7:00 AM81 °FScattered clouds.6 mph79%29.92 "HgN/A
6:00 AM77 °FPassing clouds.1 mph89%29.89 "HgN/A
5:00 AM77 °FPassing clouds.2 mph89%29.89 "HgN/A
4:00 AM77 °FPassing clouds.9 mph89%29.86 "HgN/A
3:00 AM77 °FPassing clouds.3 mph89%29.86 "HgN/A
2:00 AM79 °FPassing clouds.5 mph84%29.83 "HgN/A
1:00 AM79 °FPassing clouds.3 mph84%29.86 "HgN/A
12:00 AM81 °FPassing clouds.6 mph79%29.86 "HgN/A
11:00 PM
Thu, Feb 11
82 °FPassing clouds.10 mph74%29.86 "HgN/A
10:00 PM82 °FPassing clouds.15 mph74%29.86 "HgN/A
9:00 PM82 °FPassing clouds.No wind74%29.86 "HgN/A
8:00 PM82 °FPassing clouds.12 mph74%29.86 "HgN/A
7:00 PM82 °FPassing clouds.14 mph79%29.86 "HgN/A
6:00 PM84 °FPassing clouds.16 mph70%29.83 "HgN/A
Weather by CustomWeather, © 2016

See weather overviewHow to use our weather pages